Погода в Вознесенске

Украина / Николаевская область     47˚33′37″N   31˚20′10″E
темп.,
°C
ветер,
м/с
пор.,
м/с
влажн.,
%
обл.,
%
осадки,
мм/ч
давл.,
гПа
погр.,
м
6 декабря, вс
вс623:00−1˚в411835 0.0 1030399
02:00−2˚в511647 0.0 1030412
05:00−2˚в511590 0.0 1030431
08:00−3˚в512540 0.0 1031469
11:00в710420 0.0 1031594
14:00+2˚в69380 0.0 1030670
17:00−2˚в512450 0.0 1030418
20:00−3˚в613480 0.0 1030483
7 декабря, пн
пн723:00−4˚в612620 0.0 1030536
02:00−5˚в611670 0.0 1030527
05:00−5˚в612640 0.0 1029519
08:00−6˚всв713630 0.0 1029579
11:00−3˚в8116039 0.0 1028715
14:00−2˚в7127268 0.0 1027655
17:00−1˚в71365100 0.0 1026730
20:00−1˚в81367100 0.0 1026765
8 декабря, вт
вт823:00−3˚в7147173 0.0 1025618
02:00−3˚в6137461 0.0 1025645
05:00−3˚в8117798 0.0 1024754
08:00−3˚в7107899 0.0 1024711
11:00−1˚в6979100 0.1 1024723
14:00−1˚всв7979100 0.1 1024501
17:00−1˚всв61077100 0.0 1024586
20:00−1˚всв5975100 0.0 1024611
9 декабря, ср
ср923:00−1˚всв51080100 0.0 1024579
02:00−2˚всв61086100 0.2 1023499
05:00−1˚всв61185100 0.6 1023498
08:00−1˚всв71180100 0.7 1023432
11:00всв61083100 0.0 1023448
14:00+1˚всв61185100 0.1 1022464
17:00+1˚всв51089100 0.1 1022436
20:00+2˚в51187100 0.3 1023435
10 декабря, чт
чт1023:00+2˚в5118896 0.0 1023447
02:00+3˚в6129198 0.0 1023401
05:00+4˚вюв71394100 0.1 1022401
08:00+5˚вюв71393100 0.1 1022378
11:00+6˚вюв81287100 0.0 1023496
14:00+7˚вюв8128099 0.0 1022550
17:00+5˚вюв7139087 0.0 1022469
20:00+6˚вюв8138593 0.0 1022588